Location: Gleizolles
(44.4833°N, 6.7667°E)
Time: 20:18:37
(UTC+00:00)

Vanguard 1 Rocket - All Passes

Search period start: 23 June 2024 00:00
Search period end: 03 July 2024 00:00
Orbit: 650 x 4220 km, 34.3° (Epoch: 22 June)

Date Brightness Start Highest point End Pass type
(mag) Time Alt. Az. Time Alt. Az. Time Alt. Az.
23 Jun - 02:06:24 10° WSW 02:22:23 61° SSE 02:47:25 10° E visible
23 Jun - 04:32:45 10° W 04:53:26 61° SSW 05:18:24 10° ESE daylight
23 Jun - 07:02:22 10° W 07:23:57 40° SW 07:44:15 10° SSE daylight
23 Jun - 09:41:54 10° W 09:50:48 13° WSW 09:59:01 10° SW daylight
23 Jun - 22:34:07 10° S 22:42:40 23° SE 22:55:33 10° E visible
24 Jun - 00:54:49 10° SW 01:08:10 53° SSE 01:30:57 10° E visible
24 Jun - 03:19:44 10° WSW 03:37:56 64° S 04:03:36 10° ESE daylight
24 Jun - 05:47:33 10° W 06:09:05 50° SSW 06:32:06 10° SE daylight
24 Jun - 08:20:25 10° W 08:37:43 24° SW 08:53:28 10° S daylight
24 Jun - 21:28:43 10° SE 21:31:21 11° ESE 21:34:20 10° ESE visible
24 Jun - 23:44:00 10° SSW 23:55:00 41° SE 00:14:00 10° E visible
25 Jun - 02:07:24 10° WSW 02:22:53 62° S 02:47:50 10° E visible
25 Jun - 04:33:46 10° W 04:53:45 57° SSW 05:18:36 10° SE daylight
25 Jun - 07:03:34 10° W 07:23:49 34° SW 07:43:38 10° SSE daylight
25 Jun - 22:34:11 10° S 22:42:49 27° SE 22:56:37 10° E visible
26 Jun - 00:55:44 10° SW 01:08:40 56° SSE 01:31:21 10° E visible
26 Jun - 03:20:47 10° W 03:38:24 62° S 04:03:53 10° ESE daylight
26 Jun - 05:48:38 10° W 06:09:10 45° SSW 06:31:51 10° SSE daylight
26 Jun - 08:22:54 10° W 08:37:26 19° SW 08:51:14 10° SSW daylight
26 Jun - 21:26:28 10° SSE 21:31:27 14° SE 21:37:53 10° E visible
26 Jun - 23:44:45 10° SW 23:55:24 45° SSE 00:14:31 10° E visible
27 Jun - 02:08:28 10° WSW 02:23:28 62° S 02:48:09 10° ESE visible
27 Jun - 04:34:50 10° W 04:54:03 53° SSW 05:18:35 10° SE daylight
27 Jun - 07:05:05 10° W 07:23:40 29° SW 07:42:32 10° S daylight
27 Jun - 22:34:36 10° SSW 22:43:07 31° SE 22:57:29 10° E visible
28 Jun - 00:56:46 10° WSW 01:09:16 58° SSE 01:31:43 10° E visible
28 Jun - 03:21:54 10° W 03:38:53 59° SSW 04:04:01 10° ESE daylight
28 Jun - 05:49:51 10° W 06:09:14 39° SW 06:31:16 10° SSE daylight
28 Jun - 08:26:51 10° WSW 08:37:10 14° SW 08:47:20 10° SSW daylight
28 Jun - 21:25:51 10° SSE 21:31:39 18° SE 21:39:51 10° E visible
28 Jun - 23:45:39 10° SW 23:55:57 48° SSE 00:14:58 10° E visible
29 Jun - 02:09:35 10° WSW 02:24:05 61° S 02:48:24 10° ESE visible
29 Jun - 04:35:59 10° W 04:54:21 48° SSW 05:18:19 10° SE daylight
29 Jun - 07:07:02 10° W 07:23:33 24° SW 07:40:48 10° S daylight
29 Jun - 22:35:14 10° SSW 22:43:35 35° SE 22:58:11 10° E visible
30 Jun - 00:57:51 10° WSW 01:09:56 59° S 01:32:02 10° E visible
30 Jun - 03:23:02 10° W 03:39:23 55° SSW 04:03:59 10° SE daylight
30 Jun - 05:51:15 10° W 06:09:18 34° SW 06:30:16 10° SSE daylight
30 Jun - 21:25:51 10° S 21:32:00 22° SE 21:41:15 10° E visible
30 Jun - 23:46:40 10° SW 23:56:37 51° SSE 00:15:23 10° E visible
01 Jul - 02:10:46 10° W 02:24:44 59° S 02:48:31 10° ESE visible
01 Jul - 04:37:14 10° W 04:54:38 43° SSW 05:17:45 10° SSE daylight
01 Jul - 07:09:44 10° W 07:23:28 19° SW 07:38:05 10° SSW daylight
01 Jul - 22:36:03 10° SW 22:44:09 39° SSE 22:58:49 10° E visible
02 Jul - 00:59:01 10° WSW 01:10:41 58° S 01:32:17 10° ESE visible
02 Jul - 03:24:15 10° W 03:39:53 50° SSW 04:03:43 10° SE daylight
02 Jul - 05:52:59 10° W 06:09:24 28° SW 06:28:46 10° S daylight
02 Jul - 21:26:15 10° SSW 21:32:29 25° SE 21:42:22 10° E visible
